Weather History for KCLT - September, 2013

Change the Weather History Date:

Sunday, September 22, 2013

  Actual Average Record
Temperature  
Mean Temperature 69 °F 69 °F  
Max Temperature 80 °F 79 °F 98 °F (1895)
Min Temperature 58 °F 58 °F 43 °F (1918)
Degree Days  
Heating Degree Days 0 1  
Month to date heating degree days 0 7  
Since 1 July heating degree days 1 7  
Cooling Degree Days 4 5  
Month to date cooling degree days 218 168  
Year to date cooling degree days 1506 1445  
Growing Degree Days 18 (Base 50)    
Moisture  
Dew Point 56 °F    
Average Humidity 70    
Maximum Humidity 100    
Minimum Humidity 40    
Precipitation  
Precipitation T in 0.10 in 2.92 in (1989)
Month to date precipitation 2.89 2.35  
Year to date precipitation 38.21 30.95  
Snow  
Snow 0.00 in 0.00 in 0.00 in ()
Month to date snowfall 0.0 0.0  
Since 1 July snowfall 0.0 0.0  
Since 1 September snowfall 0.0 0.0  
Snow Depth 0.00 in    
Sea Level Pressure  
Sea Level Pressure 29.80 in    
Wind  
Wind Speed 8 mph (North)    
Max Wind Speed 18 mph    
Max Gust Speed 23 mph    
Visibility 10 miles    
Events Rain    
T = Trace of Precipitation, MM = Missing Value Source: NWS Daily Summary

Daily Weather History Graph

Daily Weather History Graph

Search for Another Location

Airport or City:

Trip Planner

Search our weather history database for the weather conditions in past years. The results will help you decide how hot, cold, wet, or windy it might be!

Date:

Astronomy

Sep. 22, 2013 Rise Set
Actual Time 7:11 AM EDT 7:20 PM EDT
Civil Twilight 6:46 AM EDT 7:45 PM EDT
Nautical Twilight 6:17 AM EDT 8:15 PM EDT
Astronomical Twilight 5:47 AM EDT 8:45 PM EDT
Moon 9:18 PM EDT (9/22) 10:22 AM EDT (9/22)
Length of Visible Light 12h 58m
Length of Day
12h 08m
Waning Gibbous, 89% of the Moon is Illuminated
Sep 22
Waning Gibbous
Sep 26
Last Quarter
Oct 4
New
Oct 11
First Quarter
Oct 18
Full

Hourly Weather History & Observations

Time (EDT) Temp. Dew Point Humidity Pressure Visibility Wind Dir Wind Speed Gust Speed Precip Events Conditions
12:20 AM 64.4 °F 62.6 °F 94% 29.71 in 3.0 mi North 18.4 mph 26.5 mph 0.19 in Rain Heavy Rain
12:39 AM 64.4 °F 62.6 °F 94% 29.72 in 9.0 mi NNE 15.0 mph 24.2 mph 0.26 in Rain Light Rain
12:50 AM 62.6 °F 62.6 °F 100% 29.72 in 10.0 mi North 16.1 mph 21.9 mph 0.27 in Rain Light Rain
12:52 AM 63.0 °F 62.1 °F 97% 29.70 in 10.0 mi North 16.1 mph - 0.27 in Rain Light Rain
1:52 AM 63.0 °F 62.1 °F 97% 29.72 in 10.0 mi North 9.2 mph - 0.00 in   Overcast
2:52 AM 64.0 °F 62.1 °F 93% 29.73 in 10.0 mi North 8.1 mph - N/A   Overcast
3:52 AM 63.0 °F 62.1 °F 97% 29.73 in 10.0 mi North 8.1 mph - N/A   Mostly Cloudy
4:52 AM 63.0 °F 59.0 °F 87% 29.74 in 10.0 mi North 8.1 mph - N/A   Scattered Clouds
5:52 AM 61.0 °F 57.0 °F 87% 29.77 in 10.0 mi North 6.9 mph - N/A   Scattered Clouds
6:52 AM 60.1 °F 55.0 °F 83% 29.78 in 10.0 mi North 9.2 mph - N/A   Scattered Clouds
7:52 AM 61.0 °F 55.0 °F 81% 29.80 in 10.0 mi North 8.1 mph - N/A   Scattered Clouds
8:52 AM 64.9 °F 55.9 °F 73% 29.82 in 10.0 mi North 11.5 mph - N/A   Partly Cloudy
9:52 AM 68.0 °F 54.0 °F 61% 29.84 in 10.0 mi North 12.7 mph - N/A   Partly Cloudy
10:52 AM 72.0 °F 54.0 °F 53% 29.85 in 10.0 mi North 13.8 mph 18.4 mph N/A   Partly Cloudy
11:52 AM 73.9 °F 52.0 °F 46% 29.84 in 10.0 mi NNE 8.1 mph 20.7 mph N/A   Partly Cloudy
12:52 PM 75.0 °F 53.1 °F 46% 29.84 in 10.0 mi NNE 11.5 mph 17.3 mph N/A   Scattered Clouds
1:52 PM 77.0 °F 52.0 °F 42% 29.83 in 10.0 mi North 6.9 mph - N/A   Scattered Clouds
2:52 PM 77.0 °F 52.0 °F 42% 29.81 in 10.0 mi NNE 11.5 mph - N/A   Scattered Clouds
3:52 PM 78.1 °F 53.1 °F 42% 29.81 in 10.0 mi North 10.4 mph - N/A   Partly Cloudy
4:52 PM 78.1 °F 53.1 °F 42% 29.81 in 10.0 mi NNW 8.1 mph - N/A   Partly Cloudy
5:52 PM 75.9 °F 54.0 °F 46% 29.82 in 10.0 mi NNW 5.8 mph - N/A   Partly Cloudy
6:52 PM 72.0 °F 55.9 °F 57% 29.83 in 10.0 mi North 3.5 mph - N/A   Partly Cloudy
7:52 PM 69.1 °F 55.0 °F 61% 29.84 in 10.0 mi NNE 3.5 mph - N/A   Partly Cloudy
8:52 PM 69.1 °F 55.0 °F 61% 29.86 in 10.0 mi NNE 6.9 mph - N/A   Clear
9:52 PM 66.0 °F 55.9 °F 70% 29.88 in 10.0 mi NNE 3.5 mph - N/A   Clear
10:52 PM 68.0 °F 55.0 °F 63% 29.90 in 10.0 mi Calm Calm - N/A   Partly Cloudy
11:52 PM 61.0 °F 59.0 °F 93% 29.91 in 10.0 mi Calm Calm - N/A   Mostly Cloudy